Aurora, OR

11:44 AM PST on January 24, 2017 (GMT -0800)
Aurora State

Weather History for KUAO - January, 2014

Change the Weather History Date:

Saturday, January 18, 2014

  Actual Average Record
Temperature  
Mean Temperature 32 °F -  
Max Temperature 36 °F - 64 °F (2005)
Min Temperature 31 °F - 28 °F (2013)
Degree Days  
Heating Degree Days 31    
Month to date heating degree days 421  
Since 1 July heating degree days 2458  
Cooling Degree Days 0    
Month to date cooling degree days 0  
Year to date cooling degree days 0  
Moisture  
Dew Point 33 °F    
Average Humidity 96    
Maximum Humidity 100    
Minimum Humidity 92    
Precipitation  
Precipitation 0.00 in - 1.51 in (1953)
Month to date precipitation 1.84  
Year to date precipitation 1.84  
Sea Level Pressure  
Sea Level Pressure 30.26 in    
Wind  
Wind Speed 2 mph (South)    
Max Wind Speed 7 mph    
Max Gust Speed 9 mph    
Visibility 1 miles    
Events Fog    
T = Trace of Precipitation, MM = Missing Value Source: NWS Daily Summary

Daily Weather History Graph

Daily Weather History Graph

Search for Another Location

Airport or City:

Trip Planner

Search our weather history database for the weather conditions in past years. The results will help you decide how hot, cold, wet, or windy it might be!

Date:

Astronomy

Jan. 18, 2014 Rise Set
Actual Time 7:44 AM PST 4:59 PM PST
Civil Twilight 7:11 AM PST 5:31 PM PST
Nautical Twilight 6:35 AM PST 6:08 PM PST
Astronomical Twilight 6:00 AM PST 6:43 PM PST
Moon 7:56 PM PST (1/18) 8:38 AM PST (1/18)
Length of Visible Light 10h 19m
Length of Day
9h 14m
Waning Gibbous, 94% of the Moon is Illuminated
Jan 18
Waning Gibbous
Jan 23
Last Quarter
Jan 30
New
Feb 6
First Quarter
Feb 14
Full

Hourly Weather History & Observations

Time (PST) Temp. Windchill Dew Point Humidity Pressure Visibility Wind Dir Wind Speed Gust Speed Precip Events Conditions
12:53 AM 32.0 °F - 32.0 °F 100% 30.25 in 0.5 mi Calm Calm - N/A Fog Fog
1:53 AM 33.1 °F 30.0 °F 33.1 °F 100% 30.26 in 0.5 mi ESE 3.5 mph - N/A Fog Fog
2:53 AM 32.0 °F - 32.0 °F 100% 30.29 in 0.5 mi Calm Calm - N/A Fog Fog
3:53 AM 33.1 °F 28.7 °F 33.1 °F 100% 30.30 in 0.5 mi South 4.6 mph - N/A Fog Fog
4:53 AM 32.0 °F 28.7 °F 32.0 °F 100% 30.29 in 0.5 mi SSE 3.5 mph - N/A Fog Fog
5:53 AM 32.0 °F - 32.0 °F 100% 30.30 in 0.8 mi Calm Calm - N/A   Mist
6:50 AM 30.2 °F 26.7 °F 30.2 °F 100% 30.29 in 0.2 mi SSW 3.5 mph - N/A Fog Light Freezing Fog
6:53 AM 30.9 °F 27.5 °F 30.9 °F 100% 30.30 in 0.2 mi South 3.5 mph - N/A Fog Light Freezing Fog
7:31 AM 30.9 °F - 30.9 °F 100% 30.28 in 0.5 mi Calm Calm - N/A Fog Light Freezing Fog
7:53 AM 32.0 °F - 32.0 °F 100% 30.29 in 0.2 mi Calm Calm - N/A Fog Fog
8:53 AM 32.0 °F 27.5 °F 32.0 °F 100% 30.31 in 0.2 mi SW 4.6 mph - N/A Fog Fog
9:53 AM 32.0 °F - 32.0 °F 100% 30.33 in 0.5 mi Calm Calm - N/A Fog Fog
10:09 AM 32.0 °F - 32.0 °F 100% 30.33 in 0.2 mi Calm Calm - N/A Fog Fog
10:24 AM 32.0 °F 28.7 °F 32.0 °F 100% 30.33 in 0.5 mi NE 3.5 mph - N/A Fog Fog
10:36 AM 32.0 °F - 32.0 °F 100% 30.33 in 0.2 mi Calm Calm - N/A Fog Fog
10:53 AM 32.0 °F 28.7 °F 32.0 °F 100% 30.33 in 0.2 mi SSE 3.5 mph - N/A Fog Fog
11:53 AM 32.0 °F - 32.0 °F 100% 30.30 in 0.2 mi Calm Calm - N/A Fog Fog
12:11 PM 33.1 °F - 33.1 °F 100% 30.28 in 0.5 mi Calm Calm - N/A Fog Fog
12:43 PM 33.1 °F - 33.1 °F 100% 30.26 in 1.8 mi Calm Calm - N/A   Overcast
12:50 PM 33.8 °F - 33.8 °F 100% 30.26 in 2.5 mi Calm Calm - N/A   Overcast
12:53 PM 34.0 °F - 34.0 °F 100% 30.26 in 2.0 mi Calm Calm - N/A   Overcast
1:03 PM 34.0 °F 31.0 °F 34.0 °F 100% 30.25 in 1.2 mi Variable 3.5 mph - N/A   Overcast
1:14 PM 34.0 °F 28.8 °F 33.1 °F 96% 30.25 in 3.0 mi WNW 5.8 mph - N/A   Overcast
1:23 PM 34.0 °F 31.0 °F 34.0 °F 100% 30.25 in 2.5 mi West 3.5 mph - N/A   Overcast
1:33 PM 35.1 °F 32.2 °F 35.1 °F 100% 30.25 in 4.0 mi NW 3.5 mph - N/A   Overcast
1:53 PM 35.1 °F - 34.0 °F 96% 30.25 in 5.0 mi Calm Calm - N/A   Overcast
2:53 PM 35.1 °F 30.1 °F 35.1 °F 100% 30.25 in 5.0 mi SE 5.8 mph - N/A   Overcast
3:30 PM 35.1 °F - 34.0 °F 96% 30.24 in 2.0 mi Calm Calm - N/A   Overcast
3:39 PM 35.1 °F - 35.1 °F 100% 30.24 in 1.5 mi Calm Calm - N/A   Overcast
3:53 PM 35.1 °F - 34.0 °F 96% 30.25 in 1.5 mi Calm Calm - N/A   Overcast
4:51 PM 35.6 °F - 35.6 °F 100% 30.24 in 0.8 mi Calm Calm - N/A   Overcast
4:53 PM 35.1 °F - 35.1 °F 100% 30.25 in 0.8 mi Calm Calm - N/A   Overcast
5:40 PM 34.0 °F - 34.0 °F 100% 30.23 in 0.2 mi Calm Calm - N/A Fog Fog
5:53 PM 34.0 °F - 34.0 °F 100% 30.23 in 0.2 mi Calm Calm - N/A Fog Fog
6:53 PM 34.0 °F - 34.0 °F 100% 30.22 in 0.2 mi Calm Calm - N/A Fog Fog
7:53 PM 34.0 °F - 34.0 °F 100% 30.21 in 0.2 mi Calm Calm - N/A Fog Fog
8:53 PM 34.0 °F - 34.0 °F 100% 30.22 in 0.2 mi Calm Calm - N/A Fog Fog
9:53 PM 33.1 °F 28.7 °F 33.1 °F 100% 30.22 in 0.2 mi SSE 4.6 mph - N/A Fog Fog
10:19 PM 33.1 °F - 33.1 °F 100% 30.22 in 0.5 mi Calm Calm - N/A Fog Fog
10:53 PM 33.1 °F - 33.1 °F 100% 30.21 in 0.5 mi Calm Calm - N/A Fog Fog
11:31 PM 33.1 °F - 33.1 °F 100% 30.20 in 1.0 mi Calm Calm - N/A   Mist
11:40 PM 33.1 °F - 33.1 °F 100% 30.20 in 0.8 mi Calm Calm - N/A   Mist
11:53 PM 33.1 °F 28.7 °F 33.1 °F 100% 30.20 in 1.0 mi SSW 4.6 mph - N/A   Mist